Myrtle Beach, SC

11:39 PM EST on November 23, 2017 (GMT -0500)
Myrtle Beach International

Weather History for KMYR - October, 2011

Change the Weather History Date:

Wednesday, October 19, 2011

  Actual Average Record
Temperature  
Mean Temperature 70 °F -  
Max Temperature 84 °F 71 °F 86 °F (2007)
Min Temperature 53 °F 52 °F 41 °F (1992)
Cooling Degree Days 4    
Growing Degree Days 20 (Base 50)    
Moisture  
Dew Point 65 °F    
Average Humidity 79    
Maximum Humidity 94    
Minimum Humidity 54    
Precipitation  
Precipitation 0.07 in - - ()
Sea Level Pressure  
Sea Level Pressure 29.49 in    
Wind  
Wind Speed 11 mph (SSW)    
Max Wind Speed 26 mph    
Max Gust Speed 32 mph    
Visibility 9 miles    
Events Rain    
Averages and records for this station are not official NWS values.
T = Trace of Precipitation, MM = Missing Value Source: NWS Daily Summary

Daily Weather History Graph

Daily Weather History Graph

Search for Another Location

Airport or City:

Trip Planner

Search our weather history database for the weather conditions in past years. The results will help you decide how hot, cold, wet, or windy it might be!

Date:

Astronomy

Oct. 19, 2011 Rise Set
Actual Time 7:23 AM EDT 6:37 PM EDT
Civil Twilight 6:58 AM EDT 7:02 PM EDT
Nautical Twilight 6:29 AM EDT 7:31 PM EDT
Astronomical Twilight 6:00 AM EDT 8:00 PM EDT
Moon No Moon Rise 1:45 PM EDT (10/19)
Length of Visible Light 12h 04m
Length of Day
11h 13m
Waning Gibbous, 55% of the Moon is Illuminated
Oct 19
Waning Gibbous
Oct 19
Last Quarter
Oct 26
New
Nov 2
First Quarter
Nov 10
Full

Hourly Weather History & Observations

Time (EDT) Temp. Heat Index Dew Point Humidity Pressure Visibility Wind Dir Wind Speed Gust Speed Precip Events Conditions
12:15 AM 73.4 °F - 69.8 °F 88% 29.59 in 10.0 mi SSW 12.7 mph 18.4 mph N/A   Overcast
12:35 AM 73.4 °F - 69.8 °F 88% 29.58 in 8.0 mi SSW 11.5 mph - N/A   Overcast
12:55 AM 73.4 °F - 69.8 °F 88% 29.57 in 7.0 mi SSW 8.1 mph - 0.03 in   Overcast
1:15 AM 73.4 °F - 69.8 °F 88% 29.57 in 7.0 mi South 9.2 mph - 0.01 in   Overcast
1:35 AM 73.4 °F - 69.8 °F 88% 29.56 in 9.0 mi South 8.1 mph - 0.01 in   Overcast
1:55 AM 73.4 °F - 69.8 °F 88% 29.56 in 10.0 mi South 10.4 mph - 0.01 in   Overcast
2:15 AM 73.4 °F - 69.8 °F 88% 29.56 in 9.0 mi South 9.2 mph - 0.01 in   Mostly Cloudy
2:35 AM 73.4 °F - 69.8 °F 88% 29.55 in 10.0 mi South 6.9 mph - 0.01 in   Mostly Cloudy
2:55 AM 73.4 °F - 69.8 °F 88% 29.54 in 10.0 mi South 6.9 mph - N/A   Overcast
3:15 AM 73.4 °F - 69.8 °F 88% 29.53 in 10.0 mi South 5.8 mph - N/A   Overcast
3:35 AM 73.4 °F - 69.8 °F 88% 29.52 in 9.0 mi South 8.1 mph - 0.01 in   Overcast
3:55 AM 73.4 °F - 69.8 °F 88% 29.50 in 10.0 mi South 9.2 mph - 0.02 in   Overcast
4:15 AM 73.4 °F - 69.8 °F 88% 29.50 in 10.0 mi SSW 5.8 mph - N/A   Overcast
4:35 AM 73.4 °F - 69.8 °F 88% 29.48 in 10.0 mi South 5.8 mph - N/A   Overcast
4:55 AM 73.4 °F - 69.8 °F 88% 29.48 in 8.0 mi South 8.1 mph - N/A   Overcast
5:15 AM 71.6 °F - 69.8 °F 94% 29.47 in 10.0 mi South 8.1 mph - N/A   Overcast
5:35 AM 73.4 °F - 68.0 °F 83% 29.46 in 7.0 mi South 4.6 mph - N/A   Overcast
5:46 AM 71.6 °F - 68.0 °F 88% 29.46 in 10.0 mi SE 6.9 mph - N/A   Overcast
5:55 AM 71.6 °F - 68.0 °F 88% 29.45 in 10.0 mi ESE 4.6 mph - N/A   Overcast
6:50 AM 73.4 °F - 69.8 °F 88% 29.44 in 10.0 mi SE 6.9 mph - N/A   Overcast
7:20 AM 71.6 °F - 69.8 °F 94% 29.44 in 2.0 mi SE 8.1 mph - N/A Rain Light Rain
7:50 AM 71.6 °F - 69.8 °F 94% 29.44 in - South 9.2 mph - N/A Rain Light Rain
8:45 AM 73.4 °F - 69.8 °F 88% 29.43 in 7.0 mi SE 8.1 mph - N/A   Mostly Cloudy
9:45 AM 75.2 °F - 69.8 °F 83% 29.42 in 10.0 mi SSW 9.2 mph - N/A   Mostly Cloudy
10:45 AM 77.0 °F - 71.6 °F 83% 29.39 in 10.0 mi SW 6.9 mph - N/A   Mostly Cloudy
11:50 AM 78.8 °F - 71.6 °F 78% 29.37 in 10.0 mi WSW 9.2 mph - N/A   Mostly Cloudy
12:45 PM 78.8 °F - 69.8 °F 74% 29.38 in 10.0 mi SSW 11.5 mph - N/A   Overcast
1:45 PM 80.6 °F 84.6 °F 71.6 °F 74% 29.36 in 10.0 mi WSW 9.2 mph - N/A   Mostly Cloudy
2:50 PM 82.4 °F 86.3 °F 69.8 °F 66% 29.36 in 10.0 mi SW 13.8 mph - N/A   Mostly Cloudy
3:50 PM 82.4 °F 83.9 °F 64.4 °F 54% 29.36 in 10.0 mi WSW 17.3 mph - N/A   Mostly Cloudy
4:45 PM 78.8 °F - 68.0 °F 69% 29.37 in 10.0 mi South 19.6 mph 28.8 mph N/A   Scattered Clouds
5:45 PM 84.2 °F 86.6 °F 66.2 °F 55% 29.38 in 10.0 mi SSW 19.6 mph 29.9 mph N/A   Scattered Clouds
6:50 PM 73.4 °F - 64.4 °F 73% 29.42 in 10.0 mi WSW 16.1 mph - N/A   Mostly Cloudy
7:50 PM 64.4 °F - 55.4 °F 73% 29.49 in 10.0 mi West 13.8 mph 32.2 mph N/A   Partly Cloudy
8:50 PM 60.8 °F - 48.2 °F 63% 29.55 in 10.0 mi West 17.3 mph 31.1 mph N/A   Clear
9:50 PM 59.0 °F - 44.6 °F 59% 29.59 in 10.0 mi West 17.3 mph 27.6 mph N/A   Clear
10:55 PM 57.2 °F - 44.6 °F 63% 29.62 in 10.0 mi WSW 26.5 mph 32.2 mph N/A   Mostly Cloudy
11:15 PM 55.4 °F - 41.0 °F 58% 29.64 in 10.0 mi West 23.0 mph 31.1 mph N/A   Clear
11:35 PM 55.4 °F - 39.2 °F 54% 29.63 in 10.0 mi WSW 19.6 mph 26.5 mph N/A   Clear
11:55 PM 53.6 °F - 41.0 °F 62% 29.64 in 10.0 mi West 15.0 mph 23.0 mph N/A   Clear